Tracking 18987 objects as of 25-Feb-2018
HD Live streaming from Space Station
objects crossing your sky now

SHARC

Track SHARC now!
10-day predictions


NORAD ID: 42712
Int'l Code: 1998-067LT
Perigee: 392.1 km
Apogee: 395.4 km
Inclination: 51.6 °
Period: 92.3 minutes
Semi major axis: 6764 km
RCS: Unknown
Launch date: November 20, 1998
Source: United States (US)
Launch site: TYURATAM MISSILE AND SPACE COMPLEX (TTMTR)
aabbcc
Your satellite tracking list
Your tracking list is empty




NASA's NSSDC Master Catalog

Two Line Element Set (TLE):
1 42712U 98067LT  18055.85557531  .00007549  00000-0  96437-4 0  9992
2 42712  51.6380 211.8584 0002396 125.4201 234.7016 15.60365487 44135
Source of the keplerian elements: AFSPC